This is the latest recevied weather packets stored in our database for station/object K7ZQU-7. If no packets are shown the sender has not sent any weather packets the latest 10 day(s).
| Time | Temp. | Humidity | Pressure | Rain* | Wind** | Luminosity | Snow |
|---|---|---|---|---|---|---|---|
| 1788137547 | 64° F | 25% | 762.8 mmHg | 0 in | 1 mph, 302° | - | - |
| 1788137246 | 64° F | 24% | 762.8 mmHg | 0 in | 4 mph, 330° | - | - |
| 1788136947 | 64° F | 23% | 762.8 mmHg | 0 in | 3 mph, 304° | - | - |
| 1788136349 | 64° F | 23% | 762.8 mmHg | 0 in | 2 mph, 316° | - | - |
| 1788136050 | 65° F | 23% | 762.8 mmHg | 0 in | 3 mph, 319° | - | - |
| 1788135748 | 64° F | 23% | 762.8 mmHg | 0 in | 1 mph, 280° | - | - |
| 1788135449 | 64° F | 23% | 762.9 mmHg | 0 in | 1 mph, 287° | - | - |
| 1788135150 | 64° F | 23% | 762.9 mmHg | 0 in | 4 mph, 343° | - | - |
| 1788134851 | 65° F | 22% | 762.9 mmHg | 0 in | 3 mph, 319° | - | - |
| 1788134552 | 65° F | 21% | 762.9 mmHg | 0 in | 4 mph, 345° | - | - |
| 1788134250 | 65° F | 21% | 762.9 mmHg | 0 in | 2 mph, 311° | - | - |
| 1788133951 | 64° F | 22% | 763 mmHg | 0 in | 2 mph, 274° | - | - |
| 1788133653 | 64° F | 22% | 763 mmHg | 0 in | 2 mph, 307° | - | - |
| 1788133354 | 64° F | 23% | 763 mmHg | 0 in | 3 mph, 294° | - | - |
| 1788133055 | 64° F | 23% | 763 mmHg | 0 in | 2 mph, 319° | - | - |
| 1788132454 | 64° F | 24% | 763 mmHg | 0 in | 2 mph, 269° | - | - |
| 1788132155 | 65° F | 22% | 763 mmHg | 0 in | 3 mph, 316° | - | - |
| 1788131557 | 65° F | 23% | 763.2 mmHg | 0 in | 2 mph, 246° | - | - |
| 1788131255 | 65° F | 22% | 763.3 mmHg | 0 in | 3 mph, 201° | - | - |
| 1788130956 | 65° F | 22% | 763.3 mmHg | 0 in | 2 mph, 233° | - | - |
| 1788130658 | 65° F | 21% | 763.3 mmHg | 0 in | 2 mph, 312° | - | - |
| 1788130362 | 65° F | 21% | 763.3 mmHg | 0 in | 5 mph, 8° | - | - |
| 1788130060 | 65° F | 20% | 763.3 mmHg | 0 in | 3 mph, 316° | - | - |
| 1788129758 | 65° F | 18% | 763.3 mmHg | 0 in | 4 mph, 301° | - | - |
| 1788129160 | 65° F | 20% | 763.3 mmHg | 0 in | 6 mph, 307° | - | - |
* Rain latest hour (hover to see other rain measurements)
** Current wind speed in m/s (hover to see current wind gust speed)